Estación de Azapa medio

Ultimos registro cada 15 minutos 67
Estación Fecha / Hora Temperatura Humedad Lluvia Velocidad Dirección Radiación Presion
67 Azapa medio 05-05-2026 16:30 27,5 28,6 0 0,2 315 248 968
66 Azapa medio 05-05-2026 16:15 27,8 27,7 0 0,2 314 291 968
65 Azapa medio 05-05-2026 16:00 27,8 28,2 0 0,3 311 340 967
64 Azapa medio 05-05-2026 15:45 27,7 28,2 0 0,3 308 339 968
63 Azapa medio 05-05-2026 15:30 27,9 28,6 0 0,4 308 339 968
62 Azapa medio 05-05-2026 15:15 28,2 29,2 0 0,1 310 433 968
61 Azapa medio 05-05-2026 15:00 27,6 31 0 0,2 295 430 968
60 Azapa medio 05-05-2026 14:45 27,1 31,8 0 0,6 307 420 968
59 Azapa medio 05-05-2026 14:30 27,1 31,7 0 0,4 307 365 968
58 Azapa medio 05-05-2026 14:15 27 34 0 0,6 308 437 968
57 Azapa medio 05-05-2026 14:00 26,9 33,9 0 0,2 312 412 968
56 Azapa medio 05-05-2026 13:45 26,6 38,4 0 0,5 300 411 968
55 Azapa medio 05-05-2026 13:30 26,9 35,1 0 0,3 307 442 968
54 Azapa medio 05-05-2026 13:15 26,9 37,3 0 0,4 308 540 969
53 Azapa medio 05-05-2026 13:00 26,2 38,4 0 0,4 97 540 969
52 Azapa medio 05-05-2026 12:45 26,1 40,2 0 0,5 96 541 969
51 Azapa medio 05-05-2026 12:30 25,8 45,8 0 0,7 79 534 969
50 Azapa medio 05-05-2026 12:15 25,8 45,4 0 0,9 82 527 969
49 Azapa medio 05-05-2026 12:00 25,9 45,2 0 0,5 87 517 969
48 Azapa medio 05-05-2026 11:45 25,5 46,7 0 0,4 84 503 969
47 Azapa medio 05-05-2026 11:30 25,3 46,1 0 0,5 85 490 969
46 Azapa medio 05-05-2026 11:15 25,2 43,5 0 0,8 90 474 969
45 Azapa medio 05-05-2026 11:00 24,8 45,5 0 0,3 86 452 970
44 Azapa medio 05-05-2026 10:45 24,5 45,6 0 0,3 91 351 970
43 Azapa medio 05-05-2026 10:30 24,2 45,5 0 0,7 81 314 970
42 Azapa medio 05-05-2026 10:15 23,4 44,2 0 0,5 85 102 970
41 Azapa medio 05-05-2026 10:00 22,5 45,1 0 0,5 73 225 970
40 Azapa medio 05-05-2026 09:45 21,7 50,5 0 0,6 65 306 970
39 Azapa medio 05-05-2026 09:30 21,2 51,5 0 0,6 69 138 970
38 Azapa medio 05-05-2026 09:15 20,3 53,5 0 0,8 49 229 970
37 Azapa medio 05-05-2026 09:00 19,9 55,8 0 0,9 47 200 970
36 Azapa medio 05-05-2026 08:45 19,9 54,1 0 0,8 48 124 970
35 Azapa medio 05-05-2026 08:30 19,4 55,6 0 0,2 46 129 969
34 Azapa medio 05-05-2026 08:15 17,4 58,9 0 0,6 41 118 969
33 Azapa medio 05-05-2026 08:00 15,3 67,6 0 0,1 33 53 969
32 Azapa medio 05-05-2026 07:45 14 73,9 0 0,4 22 32 969
31 Azapa medio 05-05-2026 07:30 13,4 76,8 0 0,4 20 21 969
30 Azapa medio 05-05-2026 07:15 13,1 78,4 0 0,2 20 11 969
29 Azapa medio 05-05-2026 07:00 13,1 78,3 0 0,1 20 1 969
28 Azapa medio 05-05-2026 06:45 13,4 76,7 0 0 0 0 969
27 Azapa medio 05-05-2026 06:30 13,8 75 0 0 0 0 969
26 Azapa medio 05-05-2026 06:15 14,2 73,2 0 0 21 0 969
25 Azapa medio 05-05-2026 06:00 14,5 71,5 0 0 0 0 969
24 Azapa medio 05-05-2026 05:45 14,6 70,7 0 0,6 20 0 969
23 Azapa medio 05-05-2026 05:30 14,3 72,3 0 0,5 20 0 969
22 Azapa medio 05-05-2026 05:15 13,8 74,7 0 1 20 0 969
21 Azapa medio 05-05-2026 05:00 13,2 79,3 0 0,8 20 0 969
20 Azapa medio 05-05-2026 04:45 13,1 81,7 0 0,2 20 0 969
19 Azapa medio 05-05-2026 04:30 12,9 83,2 0 0,5 20 0 969
18 Azapa medio 05-05-2026 04:15 12,9 83,8 0 0,7 20 0 969
17 Azapa medio 05-05-2026 04:00 12,8 84 0 0,6 19 0 970
16 Azapa medio 05-05-2026 03:45 12,8 83,8 0 0,1 20 0 970
15 Azapa medio 05-05-2026 03:30 12,9 84 0 0,4 20 0 970
14 Azapa medio 05-05-2026 03:15 12,8 84,2 0 0,4 20 0 970
13 Azapa medio 05-05-2026 03:00 12,8 84,6 0 0,7 20 0 970
12 Azapa medio 05-05-2026 02:45 12,7 84,4 0 0,5 19 0 970
11 Azapa medio 05-05-2026 02:30 12,8 83 0 0 0 0 970
10 Azapa medio 05-05-2026 02:15 13,1 83,2 0 0 0 0 970
9 Azapa medio 05-05-2026 02:00 13,3 82,9 0 0 0 0 970
8 Azapa medio 05-05-2026 01:45 13,7 82,4 0 0 0 0 970
7 Azapa medio 05-05-2026 01:30 13,8 83,1 0 0,5 20 0 970
6 Azapa medio 05-05-2026 01:15 13,6 83,7 0 0,7 57 0 970
5 Azapa medio 05-05-2026 01:00 13,3 84,1 0 0,6 68 0 971
4 Azapa medio 05-05-2026 00:45 13,2 84,3 0 0,5 59 0 971
3 Azapa medio 05-05-2026 00:30 13 84,5 0 0,7 40 0 971
2 Azapa medio 05-05-2026 00:15 12,8 84 0 0 39 0 971
1 Azapa medio 05-05-2026 00:00 12,7 83,8 0 0 0 0 971